Weather History for Sheridan, WY

Change the Weather History Date:

Thursday, September 19, 2013

  Actual Average Record
Temperature  
Mean Temperature 51 °F 56 °F  
Max Temperature 62 °F 72 °F 95 °F (1981)
Min Temperature 40 °F 40 °F 24 °F (1965)
Degree Days  
Heating Degree Days 14 9  
Month to date heating degree days 24 113  
Since 1 July heating degree days 25 175  
Cooling Degree Days 0 0  
Month to date cooling degree days 82 26  
Year to date cooling degree days 592 416  
Growing Degree Days 2 (Base 50)    
Moisture  
Dew Point 39 °F    
Average Humidity 64    
Maximum Humidity 86    
Minimum Humidity 42    
Precipitation  
Precipitation 0.00 in 0.06 in 1.30 in (1907)
Month to date precipitation 2.76 0.83  
Year to date precipitation 12.75 10.88  
Sea Level Pressure  
Sea Level Pressure 30.13 in    
Wind  
Wind Speed 8 mph (NW)    
Max Wind Speed 20 mph    
Max Gust Speed 25 mph    
Visibility 10 miles    
Events      
T = Trace of Precipitation, MM = Missing Value Source: NWS Daily Summary

Daily Weather History Graph

Daily Weather History Graph

Search for Another Location

Airport:

Trip Planner

Search our weather history database for the weather conditions in past years. The results will help you decide how hot, cold, wet, or windy it might be!

Date:

Astronomy

Sep. 19, 2013 Rise Set
Actual Time 6:51 AM MDT 7:10 PM MDT
Civil Twilight 6:22 AM MDT 7:39 PM MDT
Nautical Twilight 5:48 AM MDT 8:14 PM MDT
Astronomical Twilight 5:12 AM MDT 8:49 PM MDT
Moon 7:06 PM MDT (9/19) 7:06 AM MDT (9/19)
Length of Visible Light 13h 17m
Length of Day
12h 18m
Full, 100% of the Moon is Illuminated
Sep 19
Full
Sep 26
Last Quarter
Oct 4
New
Oct 11
First Quarter
Oct 18
Full

Hourly Weather History & Observations

Time (MDT) Temp. Windchill Dew Point Humidity Pressure Visibility Wind Dir Wind Speed Gust Speed Precip Events Conditions
12:53 AM 45.0 °F 42.6 °F 39.9 °F 82% 29.97 in 10.0 mi WSW 4.6 mph - N/A   Partly Cloudy
1:53 AM 45.0 °F 40.6 °F 39.9 °F 82% 29.98 in 10.0 mi WNW 8.1 mph - N/A   Scattered Clouds
2:53 AM 44.1 °F - 39.9 °F 85% 29.99 in 10.0 mi Calm Calm - N/A   Clear
3:53 AM 44.1 °F 40.1 °F 39.0 °F 82% 30.02 in 10.0 mi WNW 6.9 mph - N/A   Partly Cloudy
4:53 AM 44.1 °F 39.5 °F 37.9 °F 79% 30.08 in 10.0 mi West 8.1 mph - N/A   Partly Cloudy
5:53 AM 45.0 °F 39.3 °F 37.9 °F 76% 30.11 in 10.0 mi West 11.5 mph - N/A   Partly Cloudy
6:53 AM 45.0 °F 38.9 °F 37.0 °F 74% 30.13 in 10.0 mi WNW 12.7 mph - N/A   Clear
7:53 AM 46.0 °F 41.4 °F 37.9 °F 73% 30.14 in 10.0 mi NW 9.2 mph - N/A   Clear
8:53 AM 48.0 °F - 39.0 °F 71% 30.15 in 10.0 mi North 8.1 mph - N/A   Mostly Cloudy
9:53 AM 53.1 °F - 39.0 °F 59% 30.15 in 10.0 mi NNW 10.4 mph - N/A   Overcast
10:53 AM 51.1 °F - 37.9 °F 61% 30.19 in 10.0 mi NW 12.7 mph - N/A   Overcast
11:53 AM 52.0 °F - 39.0 °F 61% 30.19 in 10.0 mi NNW 12.7 mph - N/A   Overcast
12:53 PM 57.0 °F - 39.0 °F 51% 30.17 in 10.0 mi NNW 13.8 mph 23.0 mph N/A   Overcast
1:53 PM 59.0 °F - 39.9 °F 49% 30.15 in 10.0 mi NNW 10.4 mph - N/A   Scattered Clouds
2:53 PM 57.9 °F - 39.0 °F 49% 30.14 in 10.0 mi NW 9.2 mph - N/A   Partly Cloudy
3:53 PM 61.0 °F - 39.0 °F 44% 30.13 in 10.0 mi NW 12.7 mph - N/A   Scattered Clouds
4:53 PM 61.0 °F - 37.9 °F 42% 30.13 in 10.0 mi NNW 12.7 mph - N/A   Mostly Cloudy
5:53 PM 59.0 °F - 37.9 °F 46% 30.13 in 10.0 mi NNW 5.8 mph - N/A   Scattered Clouds
6:53 PM 53.1 °F - 41.0 °F 64% 30.15 in 10.0 mi NW 5.8 mph - N/A   Clear
7:53 PM 46.0 °F 43.9 °F 39.9 °F 79% 30.17 in 10.0 mi WNW 4.6 mph - N/A   Clear
8:53 PM 45.0 °F 41.8 °F 39.9 °F 82% 30.18 in 10.0 mi South 5.8 mph - N/A   Clear
9:53 PM 44.1 °F 41.5 °F 39.0 °F 82% 30.17 in 10.0 mi South 4.6 mph - N/A   Clear
10:53 PM 42.1 °F - 37.9 °F 85% 30.18 in 10.0 mi Calm Calm - N/A   Clear
11:53 PM 41.0 °F 38.0 °F 37.9 °F 89% 30.17 in 10.0 mi South 4.6 mph - N/A   Clear